Home > Weather > Dinajpur > Past weeks

Flag for Bangladesh Past Weather in Dinajpur, Bangladesh — Yesterday and Last 2 Weeks

Now
86 °F

Broken clouds.


Feels Like: 102 °F
Forecast: 82 / 92 °F
Wind: 7 mph from East

Location: Calcutta / Dum Dum

Current Time: Jun 29, 2016 at 7:58:24 AM

Latest Report: Jun 29, 2016 at 7:30 AM


Visibility: 2 mi

Pressure: 29.62 "Hg

Humidity: 84%

Dew Point: 81 °F

Location of DinajpurLocation

Past Weather in Dinajpur — Graph

°F

Dinajpur Temperature Yesterday

Maximum temperature yesterday: 93 °F (at 11:00 AM)
Minimum temperature yesterday: 82 °F (at 12:00 AM)
Average temperature yesterday: 88 °F

High & Low Weather Summary for the Past Weeks

 TemperatureHumidityPressure
High97 °F (Jun 21, 12:30 PM)94% (Jun 14, 6:00 AM)29.71 "Hg (Jun 14, 6:00 AM)
Low77 °F (Jun 14, 6:30 AM)50% (Jun 15, 2:00 PM)29.42 "Hg (Jun 15, 4:30 PM)
Average87 °F77%29.58 "Hg
* Reported Jun 14 6:00 AM — Jun 29 6:30 AM, Dinajpur, Weather by CustomWeather, © 2016

Note: Actual official high and low records may vary slightly from our data, if they occured in-between our weather recording intervals... More about our weather records

Advertising

Dinajpur Weather History for the Previous 24 Hours

Scroll right to see more
 ConditionsComfort  
Time TempWeatherWind HumidityBarometerVisibility
6:30 AM
Wed, Jun 29
84 °FScattered clouds.3 mph84%29.59 "Hg2 mi
6:00 AM84 °FScattered clouds.5 mph84%29.59 "Hg2 mi
5:30 AM84 °FPartly cloudy.3 mph84%29.59 "Hg2 mi
5:00 AM84 °FPassing clouds.3 mph84%29.59 "Hg2 mi
4:30 AM84 °FPassing clouds.3 mph84%29.59 "Hg2 mi
4:00 AM84 °FPassing clouds.3 mph84%29.59 "Hg2 mi
3:30 AM84 °FHaze.3 mph84%29.59 "Hg2 mi
3:00 AM84 °FHaze.3 mph84%29.59 "Hg2 mi
2:30 AM84 °FHaze.6 mph84%29.59 "Hg2 mi
2:00 AM84 °FHaze.5 mph84%29.59 "Hg2 mi
1:30 AM84 °FHaze.5 mph84%29.59 "Hg2 mi
1:00 AM84 °FHaze.3 mph84%29.59 "Hg2 mi
12:30 AM86 °FHaze.3 mph79%29.59 "Hg2 mi
12:00 AM86 °FHaze.3 mph79%29.59 "Hg2 mi
11:30 PM
Tue, Jun 28
86 °FHaze.3 mph79%29.59 "Hg2 mi
11:00 PM86 °FHaze.5 mph79%29.59 "Hg2 mi
10:30 PM86 °FHaze.10 mph79%29.59 "Hg2 mi
10:00 PM86 °FHaze.7 mph79%29.59 "Hg2 mi
9:30 PM88 °FHaze.6 mph75%29.59 "Hg2 mi
9:00 PM88 °FHaze.7 mph75%29.59 "Hg2 mi
8:30 PM88 °FHaze.9 mph75%29.56 "Hg2 mi
8:00 PM90 °FHaze.9 mph71%29.56 "Hg2 mi
7:30 PM90 °FPassing clouds.6 mph71%29.56 "Hg2 mi
7:00 PM90 °FScattered clouds.7 mph71%29.53 "Hg2 mi
6:30 PM91 °FScattered clouds.8 mph67%29.53 "Hg3 mi
6:00 PM91 °FScattered clouds.9 mph63%29.53 "Hg3 mi
5:30 PM93 °FScattered clouds.10 mph59%29.53 "Hg3 mi
5:00 PM93 °FScattered clouds.14 mph59%29.53 "Hg3 mi
4:30 PM93 °FScattered clouds.13 mph63%29.50 "Hg3 mi
4:00 PM93 °FScattered clouds.12 mph67%29.53 "Hg3 mi
3:30 PM93 °FScattered clouds.14 mph67%29.53 "Hg3 mi
3:00 PM93 °FScattered clouds.12 mph67%29.53 "Hg3 mi
2:30 PM93 °FScattered clouds.10 mph63%29.56 "Hg3 mi
2:00 PM91 °FScattered clouds.5 mph75%29.56 "Hg2 mi
1:30 PM90 °FScattered clouds.9 mph84%29.56 "Hg2 mi
1:00 PM88 °FScattered clouds.9 mph89%29.56 "Hg2 mi
12:30 PM88 °FScattered clouds.6 mph84%29.56 "Hg2 mi
12:00 PM84 °FScattered clouds.9 mph84%29.59 "Hg2 mi
11:30 AM93 °FScattered clouds.12 mph63%29.59 "Hg2 mi
11:00 AM93 °FScattered clouds.12 mph63%29.59 "Hg2 mi
10:30 AM91 °FScattered clouds.12 mph71%29.59 "Hg2 mi
10:00 AM91 °FScattered clouds.12 mph71%29.62 "Hg2 mi
9:30 AM90 °FScattered clouds.9 mph75%29.62 "Hg2 mi
9:00 AM90 °FScattered clouds.9 mph79%29.62 "Hg2 mi
8:30 AM88 °FScattered clouds.8 mph84%29.59 "Hg2 mi
8:00 AM86 °FScattered clouds.9 mph84%29.59 "Hg2 mi
7:30 AM86 °FScattered clouds.7 mph84%29.59 "Hg2 mi
7:00 AM86 °FScattered clouds.7 mph84%29.56 "Hg2 mi
Weather by CustomWeather, © 2016

See weather overviewHow to use our weather pages